STARLINK-3962 (52708 NORAD) Tracking and Keplerian Element Data

This shows tracking and keplerian element data for the satellite.

Feedback or suggestion? Click here.




ElementValue
Catalog52708
NameSTARLINK-3962
Epoch Orbit894
Epoch Day193.25001157
Epoch Year2022
RAAN26.519
Inclination53.2164
Eccentricity0.0002419
Argument of Perigee15.2893
Mean Anonmoly149.8622
Mean Motion15.73195952
Decay Rate-0.00015013
L11 52708U 22053BE 22193.25001157 -.00015013 00000+0 -10273-3 0 9999
L22 52708 53.2164 26.5190 0002419 15.2893 149.8622 15.73195952 8942

Live tracking and technical data element details for STARLINK-3962 (NORAD 52708). STARLINK-3962 can be tracked NOW for your location showing map with azimuth and elevation plus other details from your city location.

Track the satellite on the map from your city or location and see movement details for azimuth, elevation, latitude, longitude, range, height, and movement on the map or in text.







IsCatalogInMostPopularTable: catalog: 52708, numindb: 10
Update: records affected: 1



GetName: 52708 STARLINK-3962

Hit Count: updated at: Sat, 13 Aug 2022 23:29:21 GMT